C/2015 VL62 ( Lemmon-Yeung-PanSTARRS )

Japanese version
Home page
Updated on April 13, 2018

---------------------------------------------------------------------

* Profile

Discovery Date November 2 and December 18, 2015; January 23, 2016
Magnitude 20.7 mag, 19.1 mag, 19.8 mag
Discoverer R. G. Matheny and E. J. Christensen (Mount Lemmon), W. K. Y. Yeung (near Mayhill, NM, USA), Pan-STARRS 1 telescope (Haleakala)

* Pictures

* Orbital Elements

Epoch 2017 Sept. 4.0 TT = JDT 2458000.5
T 2017 Aug. 28.59769 TT                                 MPCW
q   2.7202993            (2000.0)            P               Q
z  -0.0006720      Peri.  128.36391     +0.80634741     -0.53708694
 +/-0.0000003      Node    94.55070     -0.58984775     -0.69953979
e   1.0018279      Incl.  165.61387     -0.04339915     -0.47136154
From 1965 observations 2015 Nov. 2-2018 Mar. 23, mean residual 0".5.

* Finding Charts

* Magnitudes Graph

        m1 = 9.5 + 5 log d + 7.0 log r

---------------------------------------------------------------------

The orbital elements are published on M.P.E.C. 2018-F152.
The charts are made with StellaNavigator Ver.10 (AstroArts).
The magnitudes graphs are made with Comet for Windows.

---------------------------------------------------------------------

Copyright(C) Seiichi Yoshida (comet@aerith.net). All rights reserved.